Carlsbad, NM

12:02 AM MST on December 13, 2017 (GMT -0700)
Cavern City

Weather History for KCNM - October, 2012

Change the Weather History Date:

Friday, October 19, 2012

  Actual Average Record
Temperature  
Mean Temperature 61 °F -  
Max Temperature 79 °F 74 °F 89 °F (1979)
Min Temperature 43 °F 45 °F 31 °F (1989)
Degree Days  
Heating Degree Days 4    
Growing Degree Days 11 (Base 50)    
Moisture  
Dew Point 36 °F    
Average Humidity 44    
Maximum Humidity 76    
Minimum Humidity 17    
Precipitation  
Precipitation 0.00 in - - ()
Sea Level Pressure  
Sea Level Pressure 29.89 in    
Wind  
Wind Speed 7 mph (SSE)    
Max Wind Speed 12 mph    
Max Gust Speed -    
Visibility 10 miles    
Events      
Averages and records for this station are not official NWS values.
T = Trace of Precipitation, MM = Missing Value Source: NWS Daily Summary

Daily Weather History Graph

Daily Weather History Graph

Search for Another Location

Airport or City:

Trip Planner

Search our weather history database for the weather conditions in past years. The results will help you decide how hot, cold, wet, or windy it might be!

Date:

Astronomy

Oct. 19, 2012 Rise Set
Actual Time 7:04 AM MDT 6:19 PM MDT
Civil Twilight 6:39 AM MDT 6:43 PM MDT
Nautical Twilight 6:10 AM MDT 7:12 PM MDT
Astronomical Twilight 5:42 AM MDT 7:40 PM MDT
Moon 11:37 AM MDT (10/19) 10:11 PM MDT (10/19)
Length of Visible Light 12h 04m
Length of Day
11h 15m
Waxing Crescent, 24% of the Moon is Illuminated
Oct 19
Waxing Crescent
Oct 21
First Quarter
Oct 29
Full
Nov 6
Last Quarter
Nov 13
New

Hourly Weather History & Observations

Time (MDT) Temp. Windchill Dew Point Humidity Pressure Visibility Wind Dir Wind Speed Gust Speed Precip Events Conditions
12:53 AM 55.9 °F - 36.0 °F 47% 29.91 in 10.0 mi South 11.5 mph - N/A   Clear
1:53 AM 53.1 °F - 36.0 °F 52% 29.91 in 10.0 mi South 9.2 mph - N/A   Clear
2:53 AM 50.0 °F - 36.0 °F 59% 29.91 in 10.0 mi SE 5.8 mph - N/A   Clear
3:53 AM 48.9 °F - 37.0 °F 64% 29.91 in 10.0 mi SE 5.8 mph - N/A   Clear
4:53 AM 46.0 °F - 36.0 °F 68% 29.91 in 10.0 mi Calm Calm - N/A   Clear
5:53 AM 44.1 °F 41.5 °F 36.0 °F 73% 29.93 in 10.0 mi North 4.6 mph - N/A   Clear
6:53 AM 43.0 °F 38.8 °F 36.0 °F 76% 29.98 in 10.0 mi NNW 6.9 mph - N/A   Clear
7:53 AM 48.9 °F - 37.9 °F 66% 29.99 in 10.0 mi WNW 4.6 mph - N/A   Clear
8:53 AM 57.0 °F - 37.0 °F 47% 30.01 in 10.0 mi NNW 5.8 mph - N/A   Clear
9:53 AM 61.0 °F - 33.1 °F 35% 30.00 in 10.0 mi North 6.9 mph - N/A   Clear
10:53 AM 66.0 °F - 35.1 °F 32% 29.98 in 10.0 mi NNW 8.1 mph - N/A   Clear
11:53 AM 68.0 °F - 37.0 °F 32% 29.96 in 10.0 mi North 5.8 mph - N/A   Clear
12:53 PM 72.0 °F - 36.0 °F 27% 29.91 in 10.0 mi NNE 5.8 mph - N/A   Clear
1:53 PM 75.9 °F - 35.1 °F 23% 29.86 in 10.0 mi NE 5.8 mph - N/A   Clear
2:53 PM 78.1 °F - 34.0 °F 20% 29.83 in 10.0 mi Calm Calm - N/A   Clear
3:53 PM 79.0 °F - 30.9 °F 17% 29.81 in 10.0 mi Variable 4.6 mph - N/A   Clear
4:53 PM 78.1 °F - 33.1 °F 19% 29.80 in 10.0 mi SE 4.6 mph - N/A   Clear
5:53 PM 75.0 °F - 36.0 °F 24% 29.80 in 10.0 mi SE 4.6 mph - N/A   Clear
6:53 PM 66.9 °F - 37.9 °F 34% 29.82 in 10.0 mi SSE 6.9 mph - N/A   Clear
7:53 PM 57.2 °F - 39.2 °F 51% 29.91 in 10.0 mi SSW 9.2 mph - N/A   Clear
8:53 PM 57.9 °F - 37.9 °F 47% 29.81 in 10.0 mi SSW 4.6 mph - N/A   Clear
9:53 PM 60.1 °F - 37.9 °F 44% 29.80 in 10.0 mi South 3.5 mph - N/A   Clear
10:53 PM 55.0 °F - 37.9 °F 53% 29.80 in 10.0 mi South 3.5 mph - N/A   Clear
11:53 PM 54.0 °F - 37.9 °F 55% 29.80 in 10.0 mi SE 3.5 mph - N/A   Clear